Temperature
15 15 15 15 15 15 15 15 15 15 15 15 15 15 15 15 15 15 15 15 15 15 15 15 15 15 15 15 15 15 15 15 15 15 15 15 15 15 15 15 15 15 15
15 15 15 15 15 15 15 15 15 15 15 15 15 15 15 15 15 15 15 15 14 14 14 15 15 14 14 15 15 14 14 14 14 14 15 15 15 15 15 15 15 15 15
15 15 15 15 15 15 15 15 15 15 15 15 15 15 14 14 14 14 14 14 14 14 14 14 14 14 14 14 14 14 14 14 14 14 14 14 14 14 14 14 14 14 14
15 15 15 15 15 14 14 14 14 14 14 14 14 14 14 14 14 14 14 14 14 14 14 14 14 14 14 14 14 14 14 14 14 14 14 14 14 14 14 14 14 14 14
15 15 15 15 14 14 14 14 14 14 14 14 14 14 14 14 14 14 14 14 14 13 13 13 13 13 13 13 13 13 14 14 14 14 14 14 14 14 14 14 14 14 14
15 15 14 14 14 14 14 14 14 14 14 14 14 14 14 14 13 13 13 13 13 13 13 13 13 13 13 13 13 13 13 13 13 13 13 13 13 13 13 13 13 13 13
14 14 14 14 14 14 14 14 14 14 14 14 14 13 13 13 13 13 13 13 13 13 13 13 13 13 13 13 13 13 13 13 13 13 13 13 13 13 13 13 13 13 13
14 14 14 14 14 14 14 14 14 14 14 13 13 13 13 13 13 13 13 13 13 13 13 13 13 13 13 12 13 13 12 12 12 12 13 13 13 13 13 13 13 13 13
14 14 14 14 14 14 14 14 14 14 14 13 13 13 13 13 13 13 13 13 13 13 13 13 12 12 12 12 12 12 12 12 12 12 12 12 12 12 12 12 12 12 12
14 14 14 14 14 14 14 14 14 13 13 13 13 13 13 13 13 12 12 12 12 12 12 12 12 12 12 12 12 12 12 12 12 12 12 12 12 12 12 12 12 12 12
14 14 14 14 14 14 13 13 13 13 13 13 13 13 13 13 13 12 12 12 12 12 12 12 12 12 12 12 12 12 12 12 12 12 12 12 12 12 11 11 11 11 12
14 14 14 13 13 13 13 13 13 13 13 13 13 13 13 13 13 13 12 12 12 12 12 12 12 12 12 12 12 11 12 12 12 12 12 12 12 12 11 11 11 11 11
14 14 13 13 13 13 13 13 13 13 13 13 13 13 13 13 13 12 12 12 12 12 12 12 12 12 11 11 11 11 11 12 11 11 11 11 11 11 11 11 11 11 11
13 13 13 13 13 13 13 13 13 13 13 13 13 13 12 12 12 12 12 12 12 11 11 11 12 11 11 11 11 11 11 11 11 11 11 11 11 11 11 11 11 11 11
13 13 13 13 13 13 13 13 13 13 13 13 12 12 12 12 12 12 12 12 12 11 11 11 11 11 11 11 11 11 11 11 11 11 11 11 11 11 11 11 11 11 11
13 13 13 13 13 13 13 12 12 12 12 12 12 12 12 12 12 12 12 12 12 12 11 11 11 11 11 11 11 11 11 11 11 11 11 11 11 11 11 11 11 11 11
13 13 13 12 12 12 12 12 12 12 12 12 12 12 12 12 12 12 12 12 11 11 11 11 11 11 11 11 11 11 11 10 10 10 10 10 10 10 10 10 10 10 10
13 13 12 12 12 12 12 12 12 12 12 12 12 12 12 12 12 12 11 11 11 11 11 11 11 10 10 10 10 10 10 10 10 10 10 10 10 10 10 10 10 10 10
12 12 12 12 12 12 12 12 12 11 11 11 11 12 11 11 11 11 11 11 11 11 11 10 10 10 10 10 10 10 10 10 10 10 10 10 10 10 10 10 10 10 10
12 12 12 12 12 12 12 12 11 11 11 11 11 11 11 11 11 11 11 11 11 10 10 10 10 10 10 10 10 10 10 10 9 9 9 9 9 9 9 9 9 9 9
12 12 12 11 11 11 11 11 11 11 11 11 11 11 11 11 11 11 11 11 10 10 10 10 10 9 9 9 9 9 9 9 9 9 9 9 9 9 9 9 9 9 9
12 12 11 11 11 11 11 11 11 11 11 11 11 11 11 11 11 11 10 10 10 10 10 10 10 9 9 9 9 9 9 9 9 9 9 9 9 9 9 9 9 9 9
11 11 11 11 11 11 10 10 11 11 11 11 11 11 10 10 10 10 10 10 10 9 9 9 9 9 9 9 9 9 9 8 8 8 9 9 9 9 8 8 8 8 8
11 11 11 11 10 10 10 10 10 10 10 10 10 10 10 10 10 10 10 10 10 9 9 9 9 9 9 9 9 9 8 8 8 8 8 8 8 8 8 8 8 8 8
11 10 10 10 10 10 10 9 10 10 10 10 10 10 10 10 10 9 9 9 9 9 9 9 9 9 9 8 8 8 8 8 8 8 8 7 8 8 8 8 8 8 8
10 10 10 10 10 9 9 9 9 9 9 9 9 9 9 9 9 9 9 9 9 9 8 8 8 8 8 8 8 8 8 7 7 7 7 7 7 7 7 7 7 7 7
Wind_Speed
3 3 4 5 5 6 6 5 6 6 6 7 7 7 6 7 7 8 7 9 9 9 10 10 10 10 10 9 9 9 9 9 8 7 7 6 6 5 5 5 5 4 4
3 3 3 4 4 5 5 6 5 5 4 5 6 6 6 7 7 8 8 9 10 10 9 9 10 9 9 9 9 9 8 8 8 7 7 6 6 5 5 5 5 5 5
4 4 3 3 3 5 6 6 6 5 4 5 5 5 6 7 7 7 8 8 9 10 10 9 9 9 8 9 9 9 8 8 7 7 7 7 6 6 5 5 5 5 5
5 5 3 3 4 5 4 4 3 4 4 4 4 4 4 5 6 7 8 9 9 9 9 10 9 9 8 8 8 8 8 7 7 7 7 6 6 6 6 6 6 6 6
5 5 3 3 4 4 3 3 3 3 3 4 4 4 4 4 5 6 7 8 8 9 9 9 9 9 8 8 8 8 8 7 7 6 6 6 6 6 6 6 6 6 6
5 5 3 3 4 3 3 3 4 4 3 3 4 4 4 4 4 4 5 5 7 8 8 8 7 7 7 7 7 7 7 7 7 6 6 5 5 6 6 6 7 6 6
4 4 3 3 3 3 3 3 3 4 3 2 3 3 4 4 4 3 4 4 5 6 7 6 6 6 6 7 7 6 6 6 6 5 5 5 5 6 6 6 6 6 6
3 3 3 2 2 3 3 3 3 2 2 2 2 2 2 3 4 4 3 3 4 4 5 5 5 5 5 5 6 7 7 6 5 4 4 4 4 5 5 5 5 5 5
2 3 3 3 2 2 3 2 3 3 2 1 2 3 3 1 1 3 3 3 3 3 3 4 4 5 5 5 5 6 6 6 6 4 4 3 3 4 4 4 4 4 4
1 2 3 3 2 2 2 2 2 2 3 2 1 1 2 3 2 1 3 3 3 2 3 3 3 3 4 4 4 5 6 6 6 5 4 3 3 3 3 3 3 4 4
1 2 2 3 2 2 2 2 2 2 2 3 2 1 2 2 2 2 1 2 3 2 2 2 2 2 3 3 3 4 5 5 5 5 4 3 3 3 3 2 2 3 3
0 1 2 2 2 2 2 2 2 3 3 3 2 2 2 2 2 2 2 1 1 2 2 2 2 2 3 2 2 4 4 4 4 4 5 4 3 3 3 3 2 2 2
2 2 2 2 2 2 3 2 2 2 3 3 3 2 2 2 2 3 3 1 0 2 2 2 2 2 3 2 2 3 3 3 3 3 3 4 3 3 3 3 3 3 3
3 3 3 3 2 2 2 2 2 2 3 3 3 3 2 2 2 3 3 3 1 1 1 2 2 2 2 2 2 3 3 3 3 2 2 2 2 2 2 2 3 3 3
2 3 3 3 2 2 2 2 2 2 3 3 3 3 2 2 2 2 2 3 4 2 2 2 2 2 2 2 2 2 2 3 3 2 2 2 2 2 2 2 3 3 3
3 3 3 3 2 2 2 2 2 2 2 3 3 3 2 2 2 2 2 2 2 3 2 2 2 1 1 2 2 2 2 4 4 3 2 2 2 2 2 2 2 3 3
3 3 4 3 3 3 2 2 2 2 3 3 3 3 3 3 2 2 2 2 2 2 2 1 1 1 0 1 2 2 2 3 3 3 3 3 2 2 2 2 2 3 3
3 3 3 3 3 3 3 3 4 3 4 4 4 3 3 3 3 2 3 3 2 2 3 2 1 1 1 1 1 1 2 2 3 3 3 3 2 2 2 3 3 3 2
2 3 3 4 4 4 4 4 4 4 4 5 4 4 4 4 3 3 3 3 2 2 2 2 1 1 1 1 1 2 2 2 3 3 3 3 2 2 2 3 3 3 3
3 3 3 4 4 4 4 4 4 4 3 4 4 4 4 5 5 5 4 4 3 3 2 2 1 1 1 1 0 0 2 2 2 3 3 3 3 3 4 4 4 3 3
3 3 3 3 3 3 4 4 4 4 4 3 3 3 4 5 6 5 4 5 5 3 3 2 2 1 1 1 1 1 1 1 2 2 2 2 2 2 4 4 4 4 4
2 2 2 3 3 3 5 6 5 4 4 4 3 3 3 4 5 6 6 6 7 5 5 3 2 2 3 3 2 2 1 0 2 2 1 3 1 2 3 4 4 4 5
2 2 2 2 2 3 4 5 6 4 4 4 4 3 2 2 3 2 3 4 4 5 6 5 4 4 4 4 3 2 2 2 3 2 0 2 1 3 4 4 5 5 5
3 3 2 2 2 3 4 5 4 3 3 3 4 4 3 2 2 3 3 2 2 2 4 4 4 5 4 4 4 4 3 2 2 1 1 2 2 3 3 4 4 4 4
2 2 2 3 3 4 4 4 4 3 2 3 3 3 3 3 4 4 3 3 2 1 1 3 3 3 3 4 4 3 2 1 2 2 1 1 2 2 2 3 4 4 4
3 2 2 3 3 4 4 5 4 3 3 3 2 2 4 4 4 5 4 4 4 3 1 1 0 1 0 1 4 3 4 2 1 2 2 2 1 1 2 2 2 3 3
Wind_Direction
78 69 63 64 65 71 76 72 66 63 60 58 61 65 59 55 51 45 44 60 70 76 80 81 78 73 70 72 74 72 71 70 70 77 80 81 75 65 58 55 55 56 58
100 83 70 64 66 73 80 81 73 66 61 62 54 57 58 55 52 49 47 51 60 69 74 73 70 68 66 66 68 68 66 64 64 68 72 74 72 67 61 58 61 65 65
108 105 91 74 71 81 85 82 74 70 66 61 51 47 53 53 53 50 49 48 49 57 64 67 65 62 60 62 63 64 61 60 59 60 61 65 70 68 65 65 67 68 68
111 108 100 87 86 88 89 83 72 74 66 62 55 42 43 48 51 51 52 50 49 49 55 61 60 57 55 56 58 57 53 52 54 56 57 60 62 63 63 64 61 61 63
106 110 107 103 98 90 78 87 70 80 81 69 64 48 40 42 41 51 50 48 49 49 49 52 56 53 49 48 50 51 50 49 51 54 54 58 64 67 65 63 62 60 61
106 106 107 107 108 95 77 83 86 70 76 71 71 55 41 38 43 44 42 44 47 48 48 48 47 44 41 39 40 42 44 45 48 52 51 55 62 69 70 64 62 59 58
114 113 109 104 107 106 110 108 99 83 62 60 73 46 28 35 42 37 39 42 41 42 47 48 48 45 33 29 32 33 33 35 39 44 46 55 64 68 67 64 59 55 53
122 119 123 112 114 114 106 111 107 102 75 63 100 91 31 5 11 21 27 40 29 36 40 40 43 40 33 26 27 32 29 29 30 32 37 56 68 71 65 60 59 56 51
138 125 127 125 119 129 147 148 138 128 135 56 72 124 132 209 319 352 9 22 19 24 21 31 38 33 31 30 27 30 28 28 29 30 35 49 65 72 67 58 56 56 50
150 140 136 134 138 132 151 170 147 139 141 146 79 55 119 150 145 337 340 355 9 12 360 18 23 23 26 29 26 27 24 26 23 26 28 35 44 54 64 62 53 50 49
129 148 151 145 148 151 164 166 147 143 149 160 161 139 97 78 101 147 248 325 346 341 340 349 4 3 3 9 12 17 18 20 19 21 26 34 34 38 46 51 50 41 40
265 173 162 156 161 169 181 187 176 164 165 159 159 157 158 155 168 154 175 238 293 308 331 346 349 336 337 345 351 5 10 15 18 22 28 33 38 43 40 42 35 28 21
227 219 192 184 187 195 191 178 178 184 177 171 175 179 175 178 161 153 147 169 238 307 329 327 313 323 324 330 330 353 10 16 8 15 21 24 37 41 34 30 23 16 5
214 201 191 189 189 188 192 181 187 201 181 184 186 174 161 181 166 164 161 155 142 327 331 297 310 308 313 320 325 351 6 16 18 10 5 12 19 25 29 17 4 359 357
206 189 183 186 190 186 187 182 190 212 189 189 190 180 174 187 170 173 167 167 161 188 258 274 290 301 297 304 335 5 0 7 8 1 1 12 3 349 358 1 356 349 342
195 179 181 182 187 190 182 183 197 211 193 201 188 180 187 189 174 162 169 180 168 170 206 243 245 279 308 329 340 348 338 356 359 357 2 2 349 331 335 330 338 343 342
195 191 193 188 190 193 187 184 205 201 202 208 201 194 205 188 176 168 155 159 161 153 178 259 278 304 321 327 346 346 332 340 338 346 346 348 343 336 344 342 331 319 314
198 194 190 191 197 199 195 196 210 208 206 206 207 195 205 190 184 173 165 174 176 169 169 215 274 307 282 291 327 340 337 331 319 330 335 330 327 336 340 338 336 327 316
190 188 187 201 210 208 205 209 208 207 211 207 201 195 196 178 188 184 176 179 178 166 158 174 229 269 286 349 11 343 334 328 323 321 321 319 318 329 331 333 332 333 330
187 197 204 213 216 212 208 207 202 206 213 209 202 198 193 189 194 189 184 180 167 153 152 159 198 252 258 299 58 322 320 320 312 330 325 315 312 308 309 310 314 310 305
198 203 201 215 220 211 211 204 203 206 206 207 209 208 206 205 201 192 186 180 167 164 162 165 190 226 248 224 231 235 254 300 300 305 319 315 312 310 305 296 292 293 293
193 187 200 211 220 226 219 207 200 199 201 202 212 219 221 218 221 208 200 186 175 175 181 177 187 208 235 224 210 205 207 268 292 301 291 293 298 289 289 286 280 278 280
188 194 208 196 221 245 231 211 202 192 196 203 207 208 214 216 215 200 206 200 197 199 190 179 185 210 215 211 190 201 211 216 239 262 225 284 293 276 282 284 277 276 277
194 206 216 217 228 255 242 228 212 191 194 209 205 201 196 205 201 187 181 181 204 218 210 192 197 215 217 202 194 196 204 218 260 283 178 253 286 275 288 291 287 275 270
200 201 200 209 222 253 240 219 200 180 189 212 204 192 191 198 200 179 165 175 192 258 218 185 197 209 211 200 168 138 141 151 260 270 211 215 268 285 289 288 297 292 282
210 204 217 222 223 243 246 226 202 179 187 203 207 211 207 203 200 187 181 181 195 223 199 144 74 314 300 198 192 177 180 185 212 248 227 200 244 280 305 297 308 320 305
Height
1529 1529 1529 1529 1529 1529 1529 1529 1529 1530 1530 1530 1530 1530 1530 1531 1531 1530 1531 1531 1532 1532 1532 1533 1533 1534 1534 1535 1535 1535 1535 1535 1535 1536 1536 1537 1538 1538 1538 1538 1538 1539 1539
1531 1530 1531 1530 1530 1530 1531 1530 1530 1531 1531 1531 1531 1531 1531 1531 1532 1532 1532 1532 1533 1533 1533 1534 1534 1535 1535 1535 1535 1535 1535 1535 1536 1536 1536 1537 1537 1538 1538 1538 1538 1538 1538
1531 1532 1532 1531 1531 1531 1531 1532 1532 1532 1532 1532 1532 1532 1532 1532 1533 1533 1533 1533 1534 1534 1534 1535 1535 1535 1535 1535 1536 1536 1536 1536 1536 1536 1536 1537 1537 1537 1538 1538 1538 1538 1538
1532 1532 1532 1532 1532 1532 1532 1532 1532 1532 1532 1532 1533 1533 1533 1533 1533 1534 1534 1534 1534 1535 1535 1535 1535 1535 1536 1536 1536 1536 1536 1536 1536 1536 1536 1536 1537 1537 1537 1538 1538 1538 1538
1532 1533 1533 1533 1533 1533 1533 1532 1532 1533 1533 1533 1533 1533 1534 1534 1534 1534 1535 1535 1535 1535 1535 1536 1536 1536 1536 1536 1536 1536 1536 1536 1536 1536 1536 1536 1536 1537 1537 1537 1537 1537 1537
1532 1533 1533 1533 1533 1533 1533 1532 1532 1533 1533 1533 1533 1534 1534 1535 1535 1535 1535 1536 1536 1536 1536 1536 1536 1536 1536 1536 1536 1536 1536 1536 1535 1535 1535 1536 1536 1536 1537 1537 1537 1537 1537
1532 1533 1533 1533 1533 1533 1533 1533 1533 1533 1533 1533 1534 1534 1535 1535 1535 1535 1536 1536 1536 1536 1536 1536 1536 1536 1536 1536 1536 1536 1535 1535 1535 1535 1535 1535 1535 1536 1536 1536 1536 1536 1536
1533 1533 1533 1533 1533 1533 1533 1533 1533 1533 1533 1533 1534 1534 1535 1536 1535 1535 1536 1536 1536 1536 1536 1536 1536 1536 1535 1535 1535 1535 1535 1535 1534 1534 1534 1534 1535 1535 1535 1536 1536 1536 1536
1532 1532 1532 1532 1532 1532 1532 1532 1533 1533 1533 1533 1534 1535 1534 1534 1535 1535 1535 1535 1536 1536 1536 1536 1535 1535 1535 1535 1534 1534 1534 1534 1534 1534 1534 1534 1534 1534 1535 1535 1535 1535 1535
1531 1532 1532 1532 1532 1531 1532 1532 1532 1532 1532 1533 1533 1534 1534 1534 1534 1534 1535 1535 1535 1535 1535 1535 1535 1535 1534 1534 1534 1533 1533 1533 1533 1533 1533 1533 1533 1534 1534 1534 1534 1535 1535
1530 1530 1530 1530 1530 1531 1531 1531 1531 1531 1532 1532 1532 1533 1533 1533 1533 1533 1533 1534 1534 1534 1534 1534 1534 1534 1534 1533 1533 1533 1532 1532 1532 1532 1532 1532 1532 1533 1533 1533 1533 1534 1534
1528 1529 1529 1529 1529 1529 1530 1530 1530 1530 1530 1531 1531 1531 1532 1532 1532 1532 1532 1532 1532 1533 1533 1533 1533 1533 1533 1532 1532 1532 1531 1531 1531 1531 1531 1531 1531 1531 1532 1532 1532 1532 1533
1526 1526 1527 1527 1527 1528 1528 1528 1528 1529 1529 1529 1529 1530 1530 1531 1531 1531 1531 1531 1531 1532 1532 1532 1532 1532 1532 1531 1531 1530 1530 1530 1530 1530 1530 1530 1530 1530 1530 1531 1531 1531 1531
1524 1524 1525 1525 1525 1526 1526 1526 1526 1527 1527 1527 1528 1528 1529 1529 1530 1530 1530 1530 1530 1530 1530 1531 1531 1531 1530 1530 1530 1529 1529 1528 1528 1528 1528 1528 1529 1529 1529 1529 1529 1529 1529
1522 1522 1522 1523 1523 1523 1524 1524 1524 1524 1525 1525 1526 1526 1527 1527 1528 1528 1529 1529 1530 1529 1529 1529 1529 1529 1529 1529 1528 1528 1527 1527 1527 1527 1527 1527 1527 1527 1527 1527 1527 1527 1527
1519 1519 1520 1520 1521 1521 1521 1521 1522 1522 1522 1523 1523 1524 1524 1525 1525 1526 1526 1527 1527 1528 1527 1527 1528 1528 1528 1527 1527 1526 1526 1526 1525 1525 1525 1525 1525 1525 1525 1525 1525 1525 1525
1516 1517 1517 1517 1518 1518 1518 1518 1519 1519 1520 1520 1520 1521 1521 1522 1523 1523 1524 1525 1525 1526 1525 1526 1526 1526 1526 1526 1525 1525 1524 1524 1524 1523 1523 1523 1523 1523 1523 1523 1523 1523 1523
1513 1513 1514 1515 1515 1515 1516 1516 1516 1516 1517 1517 1517 1518 1519 1520 1520 1521 1522 1522 1523 1523 1524 1523 1523 1524 1524 1524 1524 1523 1523 1522 1522 1522 1521 1521 1521 1521 1521 1521 1521 1521 1521
1510 1511 1511 1511 1512 1512 1513 1513 1513 1513 1514 1514 1515 1515 1516 1517 1517 1518 1519 1519 1520 1521 1521 1521 1521 1521 1522 1522 1521 1521 1521 1520 1520 1520 1520 1519 1519 1519 1519 1519 1519 1519 1519
1507 1507 1508 1508 1509 1509 1509 1510 1510 1510 1511 1511 1512 1512 1513 1514 1514 1515 1516 1517 1517 1518 1518 1519 1519 1519 1519 1519 1519 1519 1518 1518 1518 1518 1518 1517 1517 1517 1517 1517 1516 1517 1516
1504 1504 1504 1505 1505 1506 1506 1506 1507 1507 1507 1508 1508 1509 1510 1511 1511 1512 1513 1514 1514 1515 1515 1516 1516 1516 1517 1516 1517 1517 1516 1516 1516 1516 1515 1515 1515 1514 1514 1514 1514 1514 1514
1500 1501 1501 1501 1502 1502 1502 1503 1504 1504 1504 1505 1505 1506 1506 1507 1508 1509 1510 1511 1511 1512 1512 1513 1513 1513 1514 1514 1514 1514 1514 1513 1513 1514 1513 1512 1512 1512 1512 1512 1511 1511 1511
1497 1497 1497 1498 1498 1498 1499 1500 1500 1501 1501 1501 1502 1502 1503 1504 1505 1506 1507 1507 1508 1509 1510 1510 1510 1511 1511 1511 1511 1511 1511 1511 1510 1511 1510 1509 1509 1509 1509 1509 1509 1508 1508
1494 1494 1494 1494 1494 1495 1495 1496 1497 1497 1497 1498 1499 1499 1500 1500 1501 1502 1503 1504 1505 1505 1506 1507 1508 1508 1508 1509 1509 1509 1508 1508 1508 1508 1507 1506 1506 1506 1506 1506 1505 1505 1505
1490 1490 1490 1491 1491 1491 1492 1492 1494 1494 1494 1495 1495 1496 1497 1497 1498 1499 1500 1501 1501 1502 1503 1504 1504 1505 1505 1505 1505 1505 1505 1505 1504 1504 1504 1504 1503 1503 1502 1502 1502 1502 1502
1486 1487 1487 1487 1488 1488 1489 1489 1490 1490 1491 1491 1492 1493 1493 1494 1495 1495 1496 1497 1497 1498 1499 1500 1501 1501 1501 1502 1502 1502 1502 1502 1501 1501 1501 1501 1500 1500 1499 1499 1499 1499 1498